Tracking 18942 objects as of 18-Jan-2018
HD Live streaming from Space Station
objects crossing your sky now

INTEGRAL

Track INTEGRAL now!
INTEGRAL is classified as:


NORAD ID: 27540
Int'l Code: 2002-048A
Perigee: 6,554.5 km
Apogee: 142,923.2 km
Inclination: 49.1 °
Period: 3,831.5 minutes
Semi major axis: 81109 km
RCS: 5.0118 m2 (large)
Launch date: October 17, 2002
Source: European Space Agency (ESA)
Launch site: TYURATAM MISSILE AND SPACE COMPLEX (TTMTR)

Astronomical satellite for observing the gamma-ray sky.
aabbcc
Your satellite tracking list
Your tracking list is empty




NASA's NSSDC Master Catalog

Two Line Element Set (TLE):
1 27540U 02048A   18019.29257020 +.00001015 +00000-0 +00000-0 0  9995
2 27540 049.0937 177.3475 8406425 265.1328 000.4776 00.37583118015110
Source of the keplerian elements: AFSPC